| time (UTC) | temp F | wind direction | speed knots | gust knots | rain 1hr in | rain 24hr in | rain mn in | humidity % | barometer mb |
| 20260906181549 | 93 | 0 | 0.0 | 0.0 | 0.00 | 0.18 | 0.00 | 55 | 1011.5 |
| 20260906181024 | 92 | 0 | 0.0 | 0.0 | 0.00 | 0.18 | 0.00 | 56 | 1011.5 |
| 20260906180525 | 92 | 0 | 0.0 | 0.0 | 0.00 | 0.18 | 0.00 | 56 | 1011.6 |
| 20260906180043 | 93 | 0 | 0.0 | 0.0 | 0.00 | 0.18 | 0.00 | 59 | 1011.6 |
| 20260906175526 | 93 | 0 | 0.0 | 0.0 | 0.00 | 0.18 | 0.00 | 56 | 1011.6 |
| 20260906175026 | 93 | 0 | 0.0 | 0.0 | 0.00 | 0.18 | 0.00 | 57 | 1011.8 |
| 20260906174549 | 93 | 0 | 0.0 | 0.0 | 0.00 | 0.18 | 0.00 | 55 | 1011.8 |
| 20260906174023 | 92 | 0 | 0.0 | 0.0 | 0.00 | 0.18 | 0.00 | 61 | 1011.9 |
| 20260906173524 | 92 | 0 | 0.0 | 0.0 | 0.00 | 0.18 | 0.00 | 59 | 1011.9 |
| 20260906173045 | 92 | 0 | 0.0 | 0.0 | 0.00 | 0.18 | 0.00 | 60 | 1011.9 |
| 20260906172525 | 92 | 0 | 0.0 | 0.0 | 0.00 | 0.18 | 0.00 | 61 | 1012.0 |
| 20260906172023 | 91 | 0 | 0.0 | 0.0 | 0.00 | 0.18 | 0.00 | 60 | 1012.0 |
| 20260906171543 | 90 | 0 | 0.0 | 0.0 | 0.00 | 0.18 | 0.00 | 63 | 1012.0 |
| 20260906171024 | 91 | 0 | 0.0 | 0.0 | 0.00 | 0.18 | 0.00 | 60 | 1012.1 |
| 20260906170525 | 91 | 0 | 0.0 | 0.0 | 0.00 | 0.18 | 0.00 | 58 | 1012.1 |
| 20260906170044 | 91 | 0 | 0.0 | 0.0 | 0.00 | 0.18 | 0.00 | 59 | 1012.2 |
| 20260906165524 | 91 | 0 | 0.0 | 0.0 | 0.00 | 0.18 | 0.00 | 60 | 1012.3 |
| 20260906165027 | 91 | 0 | 0.0 | 0.0 | 0.00 | 0.18 | 0.00 | 62 | 1012.3 |
| 20260906164541 | 91 | 0 | 0.0 | 0.0 | 0.00 | 0.18 | 0.00 | 61 | 1012.3 |
| 20260906164024 | 91 | 0 | 0.0 | 0.0 | 0.00 | 0.18 | 0.00 | 59 | 1012.3 |
| 20260906163519 | 91 | 0 | 0.0 | 0.0 | 0.00 | 0.18 | 0.00 | 61 | 1012.4 |
| 20260906163050 | 90 | 0 | 0.0 | 0.0 | 0.00 | 0.18 | 0.00 | 62 | 1012.5 |
| 20260906162523 | 91 | 0 | 0.0 | 0.0 | 0.00 | 0.18 | 0.00 | 59 | 1012.6 |
| 20260906162022 | 91 | 0 | 0.0 | 0.0 | 0.00 | 0.18 | 0.00 | 63 | 1012.7 |
| 20260906161548 | 91 | 0 | 0.0 | 0.0 | 0.00 | 0.18 | 0.00 | 62 | 1012.6 |
| 20260906161023 | 90 | 0 | 0.0 | 0.0 | 0.00 | 0.18 | 0.00 | 64 | 1012.6 |
| 20260906160523 | 90 | 0 | 0.0 | 0.0 | 0.00 | 0.18 | 0.00 | 61 | 1012.7 |
| 20260906160043 | 90 | 0 | 0.0 | 0.0 | 0.00 | 0.18 | 0.00 | 63 | 1012.6 |
| 20260906155524 | 90 | 0 | 0.0 | 0.0 | 0.00 | 0.18 | 0.00 | 62 | 1012.7 |
| 20260906155021 | 90 | 0 | 0.0 | 0.0 | 0.00 | 0.18 | 0.00 | 63 | 1012.8 |
| 20260906154546 | 89 | 0 | 0.0 | 0.0 | 0.00 | 0.18 | 0.00 | 63 | 1012.9 |
| 20260906154024 | 89 | 0 | 0.0 | 0.0 | 0.00 | 0.18 | 0.00 | 66 | 1012.9 |
| 20260906153523 | 89 | 0 | 0.0 | 0.0 | 0.00 | 0.18 | 0.00 | 65 | 1013.0 |
| 20260906153052 | 89 | 0 | 0.0 | 0.0 | 0.00 | 0.18 | 0.00 | 65 | 1012.9 |
| 20260906152521 | 89 | 0 | 0.0 | 0.0 | 0.00 | 0.18 | 0.00 | 66 | 1012.9 |
| 20260906152027 | 88 | 0 | 0.0 | 0.0 | 0.00 | 0.18 | 0.00 | 65 | 1012.9 |
| 20260906151543 | 88 | 0 | 0.0 | 0.0 | 0.00 | 0.18 | 0.00 | 68 | 1012.9 |
| 20260906151031 | 87 | 0 | 0.0 | 0.0 | 0.00 | 0.18 | 0.00 | 70 | 1012.9 |
| 20260906150524 | 87 | 0 | 0.0 | 0.0 | 0.00 | 0.18 | 0.00 | 68 | 1012.9 |
| 20260906150045 | 87 | 0 | 0.0 | 0.0 | 0.00 | 0.18 | 0.00 | 73 | 1012.9 |
| 20260906145521 | 86 | 0 | 0.0 | 0.0 | 0.00 | 0.18 | 0.00 | 73 | 1012.9 |
| 20260906145021 | 86 | 0 | 0.0 | 0.0 | 0.00 | 0.18 | 0.00 | 70 | 1012.8 |
| 20260906144543 | 86 | 0 | 0.0 | 0.0 | 0.00 | 0.18 | 0.00 | 73 | 1012.8 |
| 20260906144021 | 86 | 0 | 0.0 | 0.0 | 0.00 | 0.18 | 0.00 | 74 | 1012.8 |
| 20260906143521 | 85 | 0 | 0.0 | 0.0 | 0.00 | 0.18 | 0.00 | 76 | 1012.8 |
| 20260906143042 | 85 | 0 | 0.0 | 0.0 | 0.00 | 0.18 | 0.00 | 79 | 1012.9 |
| 20260906142525 | 85 | 0 | 0.0 | 0.0 | 0.00 | 0.18 | 0.00 | 76 | 1012.9 |
| 20260906142030 | 84 | 0 | 0.0 | 0.0 | 0.00 | 0.18 | 0.00 | 82 | 1012.9 |
| 20260906141541 | 84 | 0 | 0.0 | 0.0 | 0.00 | 0.18 | 0.00 | 81 | 1012.8 |
| 20260906141024 | 84 | 0 | 0.0 | 0.0 | 0.00 | 0.18 | 0.00 | 79 | 1012.8 |
| 20260906140521 | 83 | 0 | 0.0 | 0.0 | 0.00 | 0.18 | 0.00 | 84 | 1012.9 |
| 20260906140049 | 83 | 0 | 0.0 | 0.0 | 0.00 | 0.18 | 0.00 | 85 | 1012.9 |
| 20260906135521 | 82 | 0 | 0.0 | 0.0 | 0.00 | 0.18 | 0.00 | 84 | 1012.8 |
| 20260906135022 | 81 | 0 | 0.0 | 0.0 | 0.00 | 0.18 | 0.00 | 88 | 1012.8 |
| 20260906134543 | 80 | 0 | 0.0 | 0.0 | 0.00 | 0.18 | 0.00 | 88 | 1012.8 |
| 20260906134022 | 80 | 0 | 0.0 | 0.0 | 0.00 | 0.18 | 0.00 | 91 | 1012.8 |
| 20260906133521 | 79 | 0 | 0.0 | 0.0 | 0.00 | 0.18 | 0.00 | 89 | 1012.8 |
| 20260906133051 | 78 | 0 | 0.0 | 0.0 | 0.00 | 0.18 | 0.00 | 90 | 1012.7 |
| 20260906132520 | 78 | 0 | 0.0 | 0.0 | 0.00 | 0.18 | 0.00 | 91 | 1012.7 |
| 20260906132019 | 78 | 0 | 0.0 | 0.0 | 0.00 | 0.18 | 0.00 | 93 | 1012.7 |
| 20260906131542 | 77 | 0 | 0.0 | 0.0 | 0.00 | 0.18 | 0.00 | 94 | 1012.7 |
| 20260906131024 | 76 | 0 | 0.0 | 0.0 | 0.00 | 0.18 | 0.00 | 96 | 1012.7 |
| 20260906130518 | 76 | 0 | 0.0 | 0.0 | 0.00 | 0.18 | 0.00 | 96 | 1012.7 |
| 20260906130050 | 76 | 0 | 0.0 | 0.0 | 0.00 | 0.18 | 0.00 | 97 | 1012.7 |
| 20260906125521 | 75 | 0 | 0.0 | 0.0 | 0.00 | 0.18 | 0.00 | 97 | 1012.7 |
| 20260906125019 | 75 | 0 | 0.0 | 0.0 | 0.00 | 0.18 | 0.00 | 98 | 1012.7 |
| 20260906124543 | 74 | 0 | 0.0 | 0.0 | 0.00 | 0.18 | 0.00 | 98 | 1012.7 |
| 20260906124026 | 74 | 0 | 0.0 | 0.0 | 0.00 | 0.18 | 0.00 | 98 | 1012.7 |
| 20260906123521 | 73 | 0 | 0.0 | 0.0 | 0.00 | 0.18 | 0.00 | 98 | 1012.6 |
| 20260906123046 | 73 | 0 | 0.0 | 0.0 | 0.00 | 0.18 | 0.00 | 98 | 1012.6 |
| 20260906122526 | 72 | 0 | 0.0 | 0.0 | 0.00 | 0.18 | 0.00 | 98 | 1012.6 |
| 20260906122024 | 71 | 0 | 0.0 | 0.0 | 0.00 | 0.18 | 0.00 | 97 | 1012.5 |
| 20260906121546 | 71 | 0 | 0.0 | 0.0 | 0.00 | 0.18 | 0.00 | 97 | 1012.4 |
| 20260906121023 | 71 | 0 | 0.0 | 0.0 | 0.00 | 0.18 | 0.00 | 97 | 1012.3 |
| 20260906120519 | 71 | 0 | 0.0 | 0.0 | 0.00 | 0.18 | 0.00 | 97 | 1012.2 |
| 20260906120044 | 71 | 0 | 0.0 | 0.0 | 0.00 | 0.18 | 0.00 | 97 | 1012.2 |
| 20260906115526 | 70 | 0 | 0.0 | 0.0 | 0.00 | 0.18 | 0.00 | 97 | 1012.1 |
| 20260906115021 | 70 | 0 | 0.0 | 0.0 | 0.00 | 0.18 | 0.00 | 97 | 1012.1 |
| 20260906114548 | 70 | 0 | 0.0 | 0.0 | 0.00 | 0.18 | 0.00 | 97 | 1012.1 |
| 20260906114025 | 70 | 0 | 0.0 | 0.0 | 0.00 | 0.18 | 0.00 | 97 | 1012.0 |
| 20260906113520 | 70 | 0 | 0.0 | 0.0 | 0.00 | 0.18 | 0.00 | 97 | 1012.1 |
| 20260906113044 | 70 | 0 | 0.0 | 0.0 | 0.00 | 0.18 | 0.00 | 97 | 1012.2 |
| 20260906112526 | 70 | 0 | 0.0 | 0.0 | 0.00 | 0.18 | 0.00 | 97 | 1012.1 |
| 20260906112024 | 70 | 0 | 0.0 | 0.0 | 0.00 | 0.18 | 0.00 | 97 | 1012.0 |
| 20260906111558 | 70 | 0 | 0.0 | 0.0 | 0.00 | 0.18 | 0.00 | 97 | 1012.0 |
| 20260906111019 | 70 | 0 | 0.0 | 0.0 | 0.00 | 0.18 | 0.00 | 97 | 1012.0 |
| 20260906110521 | 70 | 0 | 0.0 | 0.0 | 0.00 | 0.18 | 0.00 | 97 | 1011.9 |
| 20260906110042 | 70 | 0 | 0.0 | 0.0 | 0.00 | 0.18 | 0.00 | 97 | 1011.9 |
| 20260906105524 | 70 | 0 | 0.0 | 0.0 | 0.00 | 0.18 | 0.00 | 97 | 1011.9 |
| 20260906105027 | 70 | 0 | 0.0 | 0.0 | 0.00 | 0.18 | 0.00 | 97 | 1011.8 |
| 20260906104548 | 70 | 0 | 0.0 | 0.0 | 0.00 | 0.18 | 0.00 | 97 | 1011.8 |
| 20260906104024 | 70 | 0 | 0.0 | 0.0 | 0.00 | 0.18 | 0.00 | 97 | 1011.9 |
| 20260906103528 | 70 | 0 | 0.0 | 0.0 | 0.00 | 0.18 | 0.00 | 97 | 1011.9 |
| 20260906103043 | 70 | 0 | 0.0 | 0.0 | 0.00 | 0.18 | 0.00 | 97 | 1011.9 |
| 20260906102519 | 70 | 0 | 0.0 | 0.0 | 0.00 | 0.18 | 0.00 | 97 | 1011.8 |
| 20260906102021 | 70 | 0 | 0.0 | 0.0 | 0.00 | 0.18 | 0.00 | 96 | 1011.8 |
| 20260906101542 | 70 | 0 | 0.0 | 0.0 | 0.00 | 0.18 | 0.00 | 97 | 1011.8 |
| 20260906101021 | 70 | 0 | 0.0 | 0.0 | 0.00 | 0.18 | 0.00 | 97 | 1011.8 |
| 20260906100521 | 70 | 0 | 0.0 | 0.0 | 0.00 | 0.18 | 0.00 | 96 | 1011.7 |
| 20260906100043 | 70 | 0 | 0.0 | 0.0 | 0.00 | 0.18 | 0.00 | 97 | 1011.8 |
| 20260906095519 | 70 | 0 | 0.0 | 0.0 | 0.00 | 0.18 | 0.00 | 96 | 1011.7 |
| 20260906095024 | 70 | 0 | 0.0 | 0.0 | 0.00 | 0.18 | 0.00 | 96 | 1011.8 |
| 20260906094547 | 70 | 0 | 0.0 | 0.0 | 0.00 | 0.18 | 0.00 | 96 | 1011.8 |
| 20260906094019 | 70 | 0 | 0.0 | 0.0 | 0.00 | 0.18 | 0.00 | 96 | 1011.8 |
| 20260906093519 | 70 | 0 | 0.0 | 0.0 | 0.00 | 0.18 | 0.00 | 96 | 1011.8 |
| 20260906093051 | 70 | 0 | 0.0 | 0.0 | 0.00 | 0.18 | 0.00 | 96 | 1011.7 |
| 20260906092521 | 70 | 0 | 0.0 | 0.0 | 0.00 | 0.18 | 0.00 | 96 | 1011.7 |
| 20260906092023 | 70 | 0 | 0.0 | 0.0 | 0.00 | 0.18 | 0.00 | 96 | 1011.8 |
| 20260906091543 | 70 | 0 | 0.0 | 0.0 | 0.00 | 0.18 | 0.00 | 96 | 1011.7 |
| 20260906091025 | 70 | 0 | 0.0 | 0.0 | 0.00 | 0.18 | 0.00 | 96 | 1011.6 |
| 20260906090525 | 71 | 0 | 0.0 | 0.0 | 0.00 | 0.18 | 0.00 | 96 | 1011.6 |
| 20260906090045 | 71 | 0 | 0.0 | 0.0 | 0.00 | 0.18 | 0.00 | 96 | 1011.6 |
| 20260906085524 | 71 | 0 | 0.0 | 0.0 | 0.00 | 0.18 | 0.00 | 96 | 1011.5 |
| 20260906085020 | 71 | 0 | 0.0 | 0.0 | 0.00 | 0.18 | 0.00 | 96 | 1011.5 |
| 20260906084554 | 71 | 0 | 0.0 | 0.0 | 0.00 | 0.18 | 0.00 | 96 | 1011.5 |
| 20260906084024 | 71 | 0 | 0.0 | 0.0 | 0.00 | 0.18 | 0.00 | 96 | 1011.5 |
| 20260906083524 | 71 | 0 | 0.0 | 0.0 | 0.00 | 0.18 | 0.00 | 96 | 1011.4 |
| 20260906083043 | 71 | 0 | 0.0 | 0.0 | 0.00 | 0.18 | 0.00 | 96 | 1011.4 |
| 20260906082522 | 71 | 0 | 0.0 | 0.0 | 0.00 | 0.18 | 0.00 | 96 | 1011.4 |
| 20260906082023 | 71 | 0 | 0.0 | 0.0 | 0.00 | 0.18 | 0.00 | 96 | 1011.5 |
| 20260906081551 | 71 | 0 | 0.0 | 0.0 | 0.00 | 0.18 | 0.00 | 96 | 1011.5 |
| 20260906081023 | 71 | 0 | 0.0 | 0.0 | 0.00 | 0.18 | 0.00 | 96 | 1011.4 |
| 20260906080525 | 71 | 0 | 0.0 | 0.0 | 0.00 | 0.18 | 0.00 | 96 | 1011.4 |
| 20260906080042 | 71 | 0 | 0.0 | 0.0 | 0.00 | 0.18 | 0.00 | 96 | 1011.5 |
| 20260906075523 | 71 | 0 | 0.0 | 0.0 | 0.00 | 0.18 | 0.00 | 96 | 1011.4 |
| 20260906075020 | 71 | 0 | 0.0 | 0.0 | 0.00 | 0.18 | 0.00 | 96 | 1011.5 |
| 20260906074548 | 71 | 0 | 0.0 | 0.0 | 0.00 | 0.18 | 0.00 | 96 | 1011.6 |
| 20260906074023 | 71 | 0 | 0.0 | 0.0 | 0.00 | 0.18 | 0.00 | 96 | 1011.5 |
| 20260906073523 | 71 | 0 | 0.0 | 0.0 | 0.00 | 0.18 | 0.00 | 96 | 1011.5 |
| 20260906073054 | 71 | 0 | 0.0 | 0.0 | 0.00 | 0.18 | 0.00 | 96 | 1011.5 |
| 20260906072527 | 71 | 0 | 0.0 | 0.0 | 0.00 | 0.18 | 0.00 | 96 | 1011.5 |
| 20260906072024 | 71 | 0 | 0.0 | 0.0 | 0.00 | 0.18 | 0.00 | 96 | 1011.4 |
| 20260906071544 | 71 | 0 | 0.0 | 0.0 | 0.00 | 0.18 | 0.00 | 96 | 1011.3 |
| 20260906071022 | 72 | 0 | 0.0 | 0.0 | 0.00 | 0.18 | 0.00 | 96 | 1011.3 |
| 20260906070523 | 72 | 0 | 0.0 | 0.0 | 0.00 | 0.18 | 0.00 | 96 | 1011.3 |
| 20260906070056 | 72 | 0 | 0.0 | 0.0 | 0.00 | 0.18 | 0.00 | 96 | 1011.4 |
| 20260906065524 | 72 | 0 | 0.0 | 0.0 | 0.00 | 0.18 | 0.00 | 96 | 1011.4 |
| 20260906065023 | 72 | 0 | 0.0 | 0.0 | 0.00 | 0.18 | 0.00 | 96 | 1011.4 |
| 20260906064543 | 72 | 0 | 0.0 | 0.0 | 0.00 | 0.18 | 0.00 | 96 | 1011.3 |
| 20260906064028 | 72 | 0 | 0.0 | 0.0 | 0.00 | 0.18 | 0.00 | 96 | 1011.5 |
| 20260906063527 | 72 | 0 | 0.0 | 0.0 | 0.00 | 0.18 | 0.00 | 96 | 1011.7 |
| 20260906063044 | 72 | 0 | 0.0 | 0.0 | 0.00 | 0.18 | 0.00 | 96 | 1011.7 |
| 20260906062525 | 72 | 0 | 0.0 | 0.0 | 0.00 | 0.18 | 0.00 | 96 | 1011.8 |
| 20260906062024 | 72 | 0 | 0.0 | 0.0 | 0.00 | 0.18 | 0.00 | 96 | 1011.8 |
| 20260906061553 | 72 | 0 | 0.0 | 0.0 | 0.00 | 0.18 | 0.00 | 96 | 1011.8 |
| 20260906061038 | 72 | 0 | 0.0 | 0.0 | 0.00 | 0.18 | 0.00 | 96 | 1012.0 |
| 20260906060523 | 72 | 0 | 0.0 | 0.0 | 0.00 | 0.18 | 0.00 | 96 | 1012.0 |
| 20260906060048 | 72 | 0 | 0.0 | 0.0 | 0.00 | 0.18 | 0.00 | 96 | 1012.0 |
| 20260906055521 | 72 | 0 | 0.0 | 0.0 | 0.00 | 0.18 | 0.00 | 96 | 1011.9 |
| 20260906055024 | 72 | 0 | 0.0 | 0.0 | 0.00 | 0.18 | 0.00 | 96 | 1012.0 |
| 20260906054544 | 72 | 0 | 0.0 | 0.0 | 0.00 | 0.18 | 0.00 | 96 | 1012.0 |
| 20260906054023 | 72 | 0 | 0.0 | 0.0 | 0.00 | 0.18 | 0.00 | 96 | 1012.0 |
| 20260906053524 | 72 | 0 | 0.0 | 0.0 | 0.00 | 0.18 | 0.00 | 96 | 1012.2 |
| 20260906053045 | 72 | 0 | 0.0 | 0.0 | 0.00 | 0.18 | 0.00 | 96 | 1012.1 |
| 20260906052524 | 72 | 0 | 0.0 | 0.0 | 0.00 | 0.18 | 0.00 | 96 | 1012.2 |
| 20260906052024 | 72 | 0 | 0.0 | 0.0 | 0.00 | 0.18 | 0.00 | 96 | 1012.3 |
| 20260906051545 | 72 | 0 | 0.0 | 0.0 | 0.00 | 0.18 | 0.00 | 96 | 1012.3 |
| 20260906051025 | 72 | 0 | 0.0 | 0.0 | 0.00 | 0.18 | 0.00 | 96 | 1012.3 |
| 20260906050523 | 72 | 0 | 0.0 | 0.0 | 0.00 | 0.18 | 0.00 | 96 | 1012.3 |
| 20260906050105 | 72 | 0 | 0.0 | 0.0 | 0.00 | 0.18 | 0.00 | 96 | 1012.3 |
| 20260906045523 | 72 | 0 | 0.0 | 0.0 | 0.00 | 0.18 | 0.00 | 96 | 1012.4 |
| 20260906045021 | 72 | 0 | 0.0 | 0.0 | 0.00 | 0.18 | 0.00 | 96 | 1012.5 |
| 20260906044542 | 72 | 0 | 0.0 | 0.0 | 0.00 | 0.18 | 0.00 | 96 | 1012.6 |
| 20260906044022 | 72 | 0 | 0.0 | 0.0 | 0.00 | 0.18 | 0.00 | 96 | 1012.6 |
| 20260906043523 | 72 | 0 | 0.0 | 0.0 | 0.00 | 0.18 | 0.00 | 96 | 1012.7 |
| 20260906043101 | 72 | 0 | 0.0 | 0.0 | 0.00 | 0.18 | 0.00 | 96 | 1012.6 |
| 20260906042522 | 72 | 0 | 0.0 | 0.0 | 0.00 | 0.18 | 0.00 | 96 | 1012.7 |
| 20260906042021 | 72 | 0 | 0.0 | 0.0 | 0.00 | 0.18 | 0.00 | 96 | 1012.6 |
| 20260906041542 | 72 | 0 | 0.0 | 0.0 | 0.00 | 0.18 | 0.00 | 95 | 1012.7 |
| 20260906041022 | 72 | 0 | 0.0 | 0.0 | 0.00 | 0.18 | 0.00 | 95 | 1012.5 |
| 20260906040521 | 72 | 0 | 0.0 | 0.0 | 0.00 | 0.18 | 0.00 | 95 | 1012.3 |
| 20260906040104 | 72 | 0 | 0.0 | 0.0 | 0.00 | 0.18 | 0.00 | 95 | 1012.5 |
| 20260906035525 | 72 | 0 | 0.0 | 0.0 | 0.00 | 0.18 | 0.18 | 95 | 1012.5 |
| 20260906035025 | 72 | 0 | 0.0 | 0.0 | 0.00 | 0.18 | 0.18 | 95 | 1012.6 |
| 20260906034542 | 72 | 0 | 0.0 | 0.0 | 0.00 | 0.18 | 0.18 | 95 | 1012.7 |
| 20260906034023 | 72 | 0 | 0.0 | 0.0 | 0.00 | 0.18 | 0.18 | 95 | 1012.6 |
| 20260906033523 | 72 | 0 | 0.0 | 0.0 | 0.00 | 0.18 | 0.18 | 95 | 1012.6 |
| 20260906033047 | 72 | 0 | 0.0 | 0.0 | 0.00 | 0.18 | 0.18 | 95 | 1012.6 |
| 20260906032522 | 72 | 0 | 0.0 | 0.0 | 0.00 | 0.18 | 0.18 | 95 | 1012.8 |
| 20260906032023 | 72 | 0 | 0.0 | 0.0 | 0.00 | 0.18 | 0.18 | 95 | 1012.7 |
| 20260906031544 | 72 | 0 | 0.0 | 0.0 | 0.00 | 0.18 | 0.18 | 95 | 1012.8 |
| 20260906031021 | 72 | 0 | 0.0 | 0.0 | 0.00 | 0.18 | 0.18 | 95 | 1012.7 |
| 20260906030522 | 72 | 0 | 0.0 | 0.0 | 0.00 | 0.18 | 0.18 | 95 | 1012.7 |
| 20260906030043 | 72 | 0 | 0.0 | 0.0 | 0.00 | 0.18 | 0.18 | 95 | 1012.7 |
| 20260906025525 | 73 | 0 | 0.0 | 0.0 | 0.00 | 0.18 | 0.18 | 95 | 1012.7 |
| 20260906025025 | 73 | 0 | 0.0 | 0.0 | 0.00 | 0.18 | 0.18 | 95 | 1012.7 |
| 20260906024546 | 73 | 0 | 0.0 | 0.0 | 0.00 | 0.18 | 0.18 | 95 | 1012.8 |
| 20260906024023 | 73 | 0 | 0.0 | 0.0 | 0.00 | 0.18 | 0.18 | 95 | 1012.9 |
| 20260906023524 | 73 | 0 | 0.0 | 0.0 | 0.00 | 0.18 | 0.18 | 95 | 1012.8 |
| 20260906023058 | 73 | 0 | 0.0 | 0.0 | 0.00 | 0.18 | 0.18 | 95 | 1012.7 |
| 20260906022525 | 73 | 0 | 0.0 | 0.0 | 0.00 | 0.18 | 0.18 | 95 | 1012.8 |
| 20260906022024 | 73 | 0 | 0.0 | 0.0 | 0.00 | 0.18 | 0.18 | 95 | 1012.8 |
| 20260906021544 | 73 | 0 | 0.0 | 0.0 | 0.00 | 0.18 | 0.18 | 95 | 1012.8 |
| 20260906021024 | 73 | 0 | 0.0 | 0.0 | 0.00 | 0.18 | 0.18 | 95 | 1012.7 |
| 20260906020524 | 73 | 0 | 0.0 | 0.0 | 0.00 | 0.18 | 0.18 | 95 | 1012.7 |
| 20260906020047 | 73 | 0 | 0.0 | 0.0 | 0.00 | 0.18 | 0.18 | 95 | 1012.6 |
| 20260906015522 | 73 | 0 | 0.0 | 0.0 | 0.00 | 0.18 | 0.18 | 95 | 1012.5 |
| 20260906015021 | 73 | 0 | 0.0 | 0.0 | 0.00 | 0.18 | 0.18 | 94 | 1012.4 |
| 20260906014555 | 73 | 0 | 0.0 | 0.0 | 0.00 | 0.18 | 0.18 | 94 | 1012.5 |
| 20260906014024 | 73 | 0 | 0.0 | 0.0 | 0.00 | 0.18 | 0.18 | 94 | 1012.3 |
| 20260906013524 | 73 | 0 | 0.0 | 0.0 | 0.00 | 0.18 | 0.18 | 94 | 1012.2 |
| 20260906013042 | 73 | 0 | 0.0 | 0.0 | 0.00 | 0.18 | 0.18 | 94 | 1012.3 |
| 20260906012524 | 73 | 0 | 0.0 | 0.0 | 0.00 | 0.18 | 0.18 | 94 | 1011.9 |
| 20260906012021 | 73 | 0 | 0.0 | 0.0 | 0.00 | 0.18 | 0.18 | 94 | 1011.9 |
| 20260906011552 | 73 | 0 | 0.0 | 0.0 | 0.00 | 0.18 | 0.18 | 94 | 1011.9 |
| 20260906011023 | 73 | 0 | 0.0 | 0.0 | 0.00 | 0.18 | 0.18 | 94 | 1012.0 |
| 20260906010523 | 73 | 0 | 0.0 | 0.0 | 0.00 | 0.18 | 0.18 | 94 | 1011.9 |
| 20260906010047 | 73 | 0 | 0.0 | 0.0 | 0.00 | 0.18 | 0.18 | 94 | 1011.7 |
| 20260906005527 | 73 | 0 | 0.0 | 0.0 | 0.00 | 0.18 | 0.18 | 94 | 1011.9 |
| 20260906005024 | 73 | 0 | 0.0 | 0.0 | 0.00 | 0.18 | 0.18 | 94 | 1011.8 |
| 20260906004544 | 73 | 0 | 0.0 | 0.0 | 0.00 | 0.18 | 0.18 | 94 | 1012.0 |
| 20260906004031 | 73 | 0 | 0.0 | 0.0 | 0.00 | 0.18 | 0.18 | 94 | 1012.0 |
| 20260906003526 | 73 | 0 | 0.0 | 0.0 | 0.00 | 0.18 | 0.18 | 94 | 1011.9 |
| 20260906003051 | 73 | 0 | 0.0 | 0.0 | 0.00 | 0.18 | 0.18 | 93 | 1012.1 |
| 20260906002522 | 74 | 0 | 0.0 | 0.0 | 0.00 | 0.18 | 0.18 | 93 | 1012.6 |
| 20260906002025 | 74 | 0 | 0.0 | 0.0 | 0.01 | 0.18 | 0.18 | 93 | 1012.6 |
| 20260906001544 | 74 | 0 | 0.0 | 0.0 | 0.01 | 0.18 | 0.18 | 93 | 1012.5 |
| 20260906001019 | 74 | 0 | 0.0 | 0.0 | 0.01 | 0.18 | 0.18 | 93 | 1012.8 |
| 20260906000520 | 74 | 0 | 0.0 | 0.0 | 0.01 | 0.18 | 0.18 | 93 | 1012.8 |
| 20260906000052 | 74 | 0 | 0.0 | 0.0 | 0.01 | 0.18 | 0.18 | 93 | 1012.6 |
| 20260905235527 | 74 | 0 | 0.0 | 0.0 | 0.01 | 0.18 | 0.18 | 92 | 1012.5 |
| 20260905235024 | 74 | 0 | 0.0 | 0.0 | 0.02 | 0.18 | 0.18 | 92 | 1012.9 |
| 20260905234553 | 74 | 0 | 0.0 | 0.0 | 0.02 | 0.18 | 0.18 | 92 | 1012.7 |
| 20260905234023 | 74 | 0 | 0.0 | 0.0 | 0.02 | 0.18 | 0.18 | 92 | 1012.9 |
| 20260905233523 | 74 | 0 | 0.0 | 0.0 | 0.02 | 0.18 | 0.18 | 91 | 1012.8 |
| 20260905233043 | 75 | 0 | 0.0 | 0.0 | 0.02 | 0.18 | 0.18 | 91 | 1012.2 |
| 20260905232522 | 75 | 0 | 0.0 | 0.0 | 0.02 | 0.18 | 0.18 | 90 | 1012.0 |
| 20260905232022 | 75 | 0 | 0.0 | 0.0 | 0.01 | 0.17 | 0.17 | 90 | 1011.6 |
| 20260905231543 | 75 | 0 | 0.0 | 0.0 | 0.01 | 0.17 | 0.17 | 90 | 1011.5 |
| 20260905231020 | 75 | 0 | 0.0 | 0.0 | 0.01 | 0.17 | 0.17 | 90 | 1011.5 |
| 20260905230520 | 76 | 0 | 0.0 | 0.0 | 0.01 | 0.17 | 0.17 | 89 | 1011.6 |
| 20260905230051 | 76 | 0 | 0.0 | 0.0 | 0.01 | 0.17 | 0.17 | 89 | 1011.8 |
| 20260905225523 | 76 | 0 | 0.0 | 0.0 | 0.02 | 0.17 | 0.17 | 87 | 1011.9 |
| 20260905225024 | 76 | 0 | 0.0 | 0.0 | 0.06 | 0.16 | 0.16 | 87 | 1011.6 |
| 20260905224552 | 76 | 0 | 0.0 | 0.0 | 0.15 | 0.16 | 0.16 | 87 | 1011.3 |
| 20260905224024 | 77 | 0 | 0.0 | 0.0 | 0.15 | 0.16 | 0.16 | 86 | 1011.2 |
| 20260905223526 | 77 | 0 | 0.0 | 0.0 | 0.15 | 0.16 | 0.16 | 85 | 1011.0 |
| 20260905223042 | 78 | 0 | 0.0 | 0.0 | 0.15 | 0.16 | 0.16 | 84 | 1011.1 |
| 20260905222526 | 78 | 0 | 0.0 | 0.0 | 0.15 | 0.16 | 0.16 | 82 | 1011.4 |
| 20260905222019 | 79 | 0 | 0.0 | 0.0 | 0.15 | 0.16 | 0.16 | 81 | 1011.5 |
| 20260905221544 | 80 | 0 | 0.0 | 0.0 | 0.16 | 0.16 | 0.16 | 81 | 1011.7 |
| 20260905221021 | 81 | 0 | 0.0 | 0.0 | 0.16 | 0.16 | 0.16 | 80 | 1012.3 |
| 20260905220525 | 82 | 0 | 0.0 | 0.0 | 0.16 | 0.16 | 0.16 | 79 | 1012.3 |
| 20260905220045 | 83 | 0 | 0.0 | 0.0 | 0.16 | 0.16 | 0.16 | 78 | 1012.0 |
| 20260905215526 | 84 | 0 | 0.0 | 0.0 | 0.15 | 0.15 | 0.15 | 75 | 1012.2 |
| 20260905215025 | 85 | 0 | 0.0 | 0.0 | 0.07 | 0.07 | 0.07 | 72 | 1013.3 |
| 20260905214547 | 86 | 0 | 0.0 | 0.0 | 0.01 | 0.01 | 0.01 | 69 | 1012.2 |
| 20260905214022 | 87 | 0 | 0.0 | 0.0 | 0.01 | 0.01 | 0.01 | 67 | 1011.3 |
| 20260905213524 | 88 | 0 | 0.0 | 0.0 | 0.01 | 0.01 | 0.01 | 66 | 1011.1 |
| 20260905213049 | 89 | 0 | 0.0 | 0.0 | 0.01 | 0.01 | 0.01 | 64 | 1011.3 |
| 20260905212519 | 90 | 0 | 0.0 | 0.0 | 0.01 | 0.01 | 0.01 | 64 | 1010.7 |
| 20260905212025 | 92 | 0 | 0.0 | 0.0 | 0.01 | 0.01 | 0.01 | 61 | 1010.6 |
| 20260905211543 | 93 | 0 | 0.0 | 0.0 | 0.00 | 0.00 | 0.00 | 57 | 1010.5 |
| 20260905211024 | 95 | 0 | 0.0 | 0.0 | 0.00 | 0.00 | 0.00 | 56 | 1010.2 |
| 20260905210523 | 96 | 0 | 0.0 | 0.0 | 0.00 | 0.00 | 0.00 | 64 | 1009.6 |
| 20260905210041 | 96 | 0 | 0.0 | 0.0 | 0.00 | 0.00 | 0.00 | 62 | 1009.7 |
| 20260905205522 | 97 | 0 | 0.0 | 0.0 | 0.00 | 0.00 | 0.00 | 62 | 1010.0 |
| 20260905205024 | 97 | 0 | 0.0 | 0.0 | 0.00 | 0.00 | 0.00 | 57 | 1010.0 |
| 20260905204541 | 98 | 0 | 0.0 | 0.0 | 0.00 | 0.00 | 0.00 | 57 | 1010.0 |
| 20260905204023 | 98 | 0 | 0.0 | 0.0 | 0.00 | 0.00 | 0.00 | 56 | 1010.0 |
| 20260905203523 | 99 | 0 | 0.0 | 0.0 | 0.00 | 0.00 | 0.00 | 56 | 1010.1 |
| 20260905203042 | 99 | 0 | 0.0 | 0.0 | 0.00 | 0.00 | 0.00 | 56 | 1010.0 |
| 20260905202523 | 99 | 0 | 0.0 | 0.0 | 0.00 | 0.00 | 0.00 | 55 | 1009.9 |
| 20260905202023 | 99 | 0 | 0.0 | 0.0 | 0.00 | 0.00 | 0.00 | 54 | 1009.9 |
| 20260905201546 | 99 | 0 | 0.0 | 0.0 | 0.00 | 0.00 | 0.00 | 55 | 1010.1 |
| 20260905201033 | 98 | 0 | 0.0 | 0.0 | 0.00 | 0.00 | 0.00 | 55 | 1010.0 |
| 20260905200523 | 99 | 0 | 0.0 | 0.0 | 0.00 | 0.00 | 0.00 | 54 | 1010.0 |
| 20260905200051 | 99 | 0 | 0.0 | 0.0 | 0.00 | 0.00 | 0.00 | 54 | 1010.0 |
| 20260905195531 | 99 | 0 | 0.0 | 0.0 | 0.00 | 0.00 | 0.00 | 56 | 1010.1 |
| 20260905195027 | 99 | 0 | 0.0 | 0.0 | 0.00 | 0.00 | 0.00 | 56 | 1010.1 |
| 20260905194545 | 99 | 0 | 0.0 | 0.0 | 0.00 | 0.00 | 0.00 | 54 | 1010.1 |
| 20260905194019 | 98 | 0 | 0.0 | 0.0 | 0.00 | 0.00 | 0.00 | 54 | 1010.1 |
| 20260905193524 | 98 | 0 | 0.0 | 0.0 | 0.00 | 0.00 | 0.00 | 55 | 1010.2 |
| 20260905193042 | 98 | 0 | 0.0 | 0.0 | 0.00 | 0.00 | 0.00 | 55 | 1010.2 |
| 20260905192521 | 98 | 0 | 0.0 | 0.0 | 0.00 | 0.00 | 0.00 | 56 | 1010.2 |
| 20260905192025 | 98 | 0 | 0.0 | 0.0 | 0.00 | 0.00 | 0.00 | 55 | 1010.3 |
| 20260905191546 | 98 | 0 | 0.0 | 0.0 | 0.00 | 0.00 | 0.00 | 57 | 1010.4 |
| 20260905191025 | 98 | 0 | 0.0 | 0.0 | 0.00 | 0.00 | 0.00 | 56 | 1010.5 |
| 20260905190523 | 97 | 0 | 0.0 | 0.0 | 0.00 | 0.00 | 0.00 | 54 | 1010.6 |
| 20260905190050 | 97 | 0 | 0.0 | 0.0 | 0.00 | 0.00 | 0.00 | 53 | 1010.7 |
| 20260905185524 | 97 | 0 | 0.0 | 0.0 | 0.00 | 0.00 | 0.00 | 53 | 1010.8 |
| 20260905185023 | 96 | 0 | 0.0 | 0.0 | 0.00 | 0.00 | 0.00 | 57 | 1010.9 |
| 20260905184557 | 97 | 0 | 0.0 | 0.0 | 0.00 | 0.00 | 0.00 | 53 | 1011.0 |
| 20260905184019 | 97 | 0 | 0.0 | 0.0 | 0.00 | 0.00 | 0.00 | 54 | 1011.1 |
| 20260905183519 | 97 | 0 | 0.0 | 0.0 | 0.00 | 0.00 | 0.00 | 53 | 1011.4 |
| 20260905183047 | 98 | 0 | 0.0 | 0.0 | 0.00 | 0.00 | 0.00 | 56 | 1011.6 |
| 20260905182523 | 98 | 0 | 0.0 | 0.0 | 0.00 | 0.00 | 0.00 | 56 | 1011.6 |
| 20260905182023 | 97 | 0 | 0.0 | 0.0 | 0.00 | 0.00 | 0.00 | 60 | 1011.7 |